Fort Stanton, NM

12:31 PM MST on December 05, 2016 (GMT -0700)
Sierra Blanca Regional

Weather History for KSRR - April, 2013

Change the Weather History Date:

Friday, April 5, 2013

  Actual Average Record
Temperature  
Mean Temperature 54 °F -  
Max Temperature 68 °F 58 °F 107 °F (1999)
Min Temperature 41 °F 35 °F 23 °F (2009)
Degree Days  
Heating Degree Days 10    
Growing Degree Days 4 (Base 50)    
Moisture  
Dew Point 12 °F    
Average Humidity 18    
Maximum Humidity 33    
Minimum Humidity 11    
Precipitation  
Precipitation 0.00 in - - ()
Sea Level Pressure  
Sea Level Pressure 30.15 in    
Wind  
Wind Speed 9 mph (SW)    
Max Wind Speed 26 mph    
Max Gust Speed 36 mph    
Visibility 10 miles    
Events      
Averages and records for this station are not official NWS values.
T = Trace of Precipitation, MM = Missing Value Source: NWS Daily Summary

Daily Weather History Graph

Daily Weather History Graph

Search for Another Location

Airport or City:

Trip Planner

Search our weather history database for the weather conditions in past years. The results will help you decide how hot, cold, wet, or windy it might be!

Date:

Astronomy

Apr. 05, 2013 Rise Set
Actual Time 6:44 AM MDT 7:25 PM MDT
Civil Twilight 6:18 AM MDT 7:50 PM MDT
Nautical Twilight 5:49 AM MDT 8:20 PM MDT
Astronomical Twilight 5:19 AM MDT 8:51 PM MDT
Moon 3:39 AM MDT 3:05 PM MDT
Length of Visible Light 13h 31m
Length of Day
12h 41m
Waning Crescent, 23% of the Moon is Illuminated
Apr 5
Waning Crescent
Apr 10
New
Apr 18
First Quarter
Apr 25
Full
May 2
Last Quarter

Hourly Weather History & Observations

Time (MDT) Temp. Windchill Dew Point Humidity Pressure Visibility Wind Dir Wind Speed Gust Speed Precip Events Conditions
12:15 AM 48.2 °F - 19.4 °F 32% 30.26 in 10.0 mi Calm Calm - N/A   Clear
12:35 AM 46.4 °F 44.3 °F 17.6 °F 32% 30.26 in 10.0 mi WSW 4.6 mph - N/A   Clear
12:55 AM 44.6 °F 43.1 °F 15.8 °F 31% 30.26 in 10.0 mi South 3.5 mph - N/A   Clear
1:15 AM 44.6 °F 41.4 °F 15.8 °F 31% 30.25 in 10.0 mi South 5.8 mph - N/A   Clear
1:35 AM 44.6 °F 43.1 °F 15.8 °F 31% 30.24 in 10.0 mi WSW 3.5 mph - N/A   Clear
1:55 AM 46.4 °F - 17.6 °F 32% 30.24 in 10.0 mi Calm Calm - N/A   Clear
2:15 AM 48.2 °F - 15.8 °F 27% 30.24 in 10.0 mi Calm Calm - N/A   Clear
2:35 AM 46.4 °F 43.5 °F 14.0 °F 27% 30.23 in 10.0 mi SW 5.8 mph - N/A   Clear
2:55 AM 48.2 °F - 10.4 °F 22% 30.23 in 10.0 mi Calm Calm - N/A   Clear
3:15 AM 46.4 °F - 14.0 °F 27% 30.23 in 10.0 mi Calm Calm - N/A   Clear
3:35 AM 46.4 °F 45.2 °F 14.0 °F 27% 30.22 in 10.0 mi NNE 3.5 mph - N/A   Clear
3:55 AM 46.4 °F - 10.4 °F 23% 30.22 in 10.0 mi Calm Calm - N/A   Clear
4:15 AM 42.8 °F - 14.0 °F 31% 30.21 in 10.0 mi Calm Calm - N/A   Clear
4:35 AM 44.6 °F - 14.0 °F 29% 30.21 in 10.0 mi Calm Calm - N/A   Clear
4:55 AM 44.6 °F - 14.0 °F 29% 30.21 in 10.0 mi Calm Calm - N/A   Clear
5:15 AM 53.6 °F - 8.6 °F 16% 30.21 in 10.0 mi WSW 11.5 mph 17.3 mph N/A   Clear
5:35 AM 53.6 °F - 8.6 °F 16% 30.21 in 10.0 mi Calm Calm - N/A   Clear
5:55 AM 41.0 °F 39.0 °F 14.0 °F 33% 30.21 in 10.0 mi NE 3.5 mph - N/A   Clear
6:15 AM 46.4 °F 44.3 °F 12.2 °F 25% 30.22 in 10.0 mi North 4.6 mph - N/A   Clear
6:35 AM 53.6 °F - 6.8 °F 15% 30.21 in 10.0 mi WSW 12.7 mph - N/A   Clear
6:55 AM 53.6 °F - 8.6 °F 16% 30.21 in 10.0 mi SW 11.5 mph - N/A   Clear
7:15 AM 53.6 °F - 6.8 °F 15% 30.22 in 10.0 mi SW 12.7 mph - N/A   Clear
7:35 AM 53.6 °F - 6.8 °F 15% 30.22 in 10.0 mi SW 13.8 mph - N/A   Clear
7:55 AM 53.6 °F - 6.8 °F 15% 30.22 in 10.0 mi SW 13.8 mph - N/A   Clear
8:15 AM 55.4 °F - 6.8 °F 14% 30.22 in 10.0 mi SW 13.8 mph - N/A   Clear
8:35 AM 55.4 °F - 6.8 °F 14% 30.22 in 10.0 mi SW 12.7 mph - N/A   Clear
8:55 AM 55.4 °F - 8.6 °F 15% 30.22 in 10.0 mi SW 13.8 mph - N/A   Clear
9:15 AM 57.2 °F - 10.4 °F 16% 30.22 in 10.0 mi SW 12.7 mph - N/A   Partly Cloudy
9:35 AM 57.2 °F - 12.2 °F 17% 30.22 in 10.0 mi SW 15.0 mph - N/A   Clear
9:55 AM 57.2 °F - 14.0 °F 18% 30.22 in 10.0 mi SW 15.0 mph - N/A   Clear
10:15 AM 59.0 °F - 14.0 °F 17% 30.22 in 10.0 mi SW 13.8 mph - N/A   Clear
10:35 AM 59.0 °F - 14.0 °F 17% 30.22 in 10.0 mi SSW 9.2 mph - N/A   Clear
10:55 AM 60.8 °F - 14.0 °F 16% 30.22 in 10.0 mi SSW 3.5 mph - N/A   Clear
11:15 AM 62.6 °F - 14.0 °F 15% 30.21 in 10.0 mi South 4.6 mph - N/A   Clear
11:35 AM 62.6 °F - 12.2 °F 14% 30.20 in 10.0 mi SSW 15.0 mph 18.4 mph N/A   Partly Cloudy
11:55 AM 64.4 °F - 14.0 °F 14% 30.19 in 10.0 mi SW 18.4 mph 24.2 mph N/A   Clear
12:15 PM 62.6 °F - 14.0 °F 15% 30.18 in 10.0 mi SSW 20.7 mph 26.5 mph N/A   Partly Cloudy
12:35 PM 64.4 °F - 14.0 °F 14% 30.16 in 10.0 mi SSW 18.4 mph 25.3 mph N/A   Clear
12:55 PM 64.4 °F - 14.0 °F 14% 30.17 in 10.0 mi WSW 18.4 mph 25.3 mph N/A   Clear
1:15 PM 66.2 °F - 15.8 °F 14% 30.15 in 10.0 mi WSW 18.4 mph 27.6 mph N/A   Partly Cloudy
1:35 PM 64.4 °F - 14.0 °F 14% 30.14 in 10.0 mi SSW 16.1 mph 27.6 mph N/A   Clear
1:55 PM 66.2 °F - 14.0 °F 13% 30.13 in 10.0 mi SW 18.4 mph 27.6 mph N/A   Partly Cloudy
2:15 PM 66.2 °F - 15.8 °F 14% 30.12 in 10.0 mi SW 19.6 mph 32.2 mph N/A   Partly Cloudy
2:35 PM 66.2 °F - 15.8 °F 14% 30.11 in 10.0 mi WSW 26.5 mph 32.2 mph N/A   Scattered Clouds
2:55 PM 66.2 °F - 15.8 °F 14% 30.10 in 10.0 mi SW 23.0 mph 31.1 mph N/A   Partly Cloudy
3:15 PM 66.2 °F - 17.6 °F 15% 30.09 in 10.0 mi SW 19.6 mph 28.8 mph N/A   Clear
3:35 PM 66.2 °F - 15.8 °F 14% 30.08 in 10.0 mi WSW 19.6 mph 29.9 mph N/A   Clear
3:55 PM 68.0 °F - 12.2 °F 12% 30.06 in 10.0 mi SW 23.0 mph 32.2 mph N/A   Clear
4:15 PM 66.2 °F - 12.2 °F 12% 30.06 in 10.0 mi SW 26.5 mph 34.5 mph N/A   Clear
4:35 PM 66.2 °F - 10.4 °F 11% 30.06 in 10.0 mi WSW 19.6 mph 25.3 mph N/A   Clear
4:55 PM 66.2 °F - 10.4 °F 11% 30.07 in 10.0 mi WSW 25.3 mph 35.7 mph N/A   Partly Cloudy
5:15 PM 64.4 °F - 10.4 °F 12% 30.07 in 10.0 mi SW 24.2 mph 33.4 mph N/A   Partly Cloudy
5:35 PM 64.4 °F - 14.0 °F 14% 30.06 in 10.0 mi SW 20.7 mph 31.1 mph N/A   Clear
5:55 PM 64.4 °F - 14.0 °F 14% 30.05 in 10.0 mi SW 18.4 mph 24.2 mph N/A   Clear
6:15 PM 66.2 °F - 14.0 °F 13% 30.05 in 10.0 mi SW 15.0 mph 19.6 mph N/A   Clear
6:35 PM 64.4 °F - 10.4 °F 12% 30.03 in 10.0 mi SW 25.3 mph 32.2 mph N/A   Clear
6:55 PM 64.4 °F - 14.0 °F 14% 30.04 in 10.0 mi SW 16.1 mph 24.2 mph N/A   Clear
7:15 PM 62.6 °F - 10.4 °F 13% 30.04 in 10.0 mi SW 16.1 mph - N/A   Clear
7:35 PM 60.8 °F - 8.6 °F 13% 30.03 in 10.0 mi SW 12.7 mph - N/A   Clear
7:55 PM 59.0 °F - 6.8 °F 13% 30.03 in 10.0 mi SSW 11.5 mph - N/A   Clear
8:15 PM 59.0 °F - 6.8 °F 13% 30.03 in 10.0 mi SSW 9.2 mph - N/A   Clear
8:35 PM 55.4 °F - 5.0 °F 13% 30.03 in 10.0 mi SSW 9.2 mph - N/A   Clear
8:55 PM 55.4 °F - 5.0 °F 13% 30.03 in 10.0 mi SSW 9.2 mph - N/A   Clear
9:15 PM 57.2 °F - 5.0 °F 12% 30.03 in 10.0 mi SSW 12.7 mph - N/A   Clear
9:35 PM 57.2 °F - 6.8 °F 13% 30.04 in 10.0 mi SW 15.0 mph - N/A   Clear
9:55 PM 59.0 °F - 8.6 °F 14% 30.05 in 10.0 mi SW 16.1 mph - N/A   Clear
10:15 PM 59.0 °F - 8.6 °F 14% 30.05 in 10.0 mi SW 17.3 mph 24.2 mph N/A   Clear
10:35 PM 59.0 °F - 10.4 °F 15% 30.04 in 10.0 mi WSW 18.4 mph 24.2 mph N/A   Clear
10:55 PM 59.0 °F - 10.4 °F 15% 30.04 in 10.0 mi WSW 13.8 mph - N/A   Clear
11:15 PM 59.0 °F - 12.2 °F 16% 30.04 in 10.0 mi WSW 17.3 mph 23.0 mph N/A   Clear
11:35 PM 59.0 °F - 12.2 °F 16% 30.05 in 10.0 mi West 13.8 mph - N/A   Clear
11:55 PM 57.2 °F - 10.4 °F 16% 30.06 in 10.0 mi West 10.4 mph - N/A   Clear